Location: Devore Heights
(34.2372°N, 117.4156°W)
Time: 03:07:23
(UTC+00:00)

SR - Pass Details

Date: 21 September 2024
Orbit: 578 x 855 km, 66.7° (Epoch: 02 October)

Event Time Altitude Azimuth Distance (km) Brightness Sun altitude
Rises 19:42:08 0° 230° (SW) 2,818 ? 56.0°
Reaches altitude 10° 19:44:37 10° 242° (WSW) 1,900 ? 56.0°
Maximum altitude 19:48:17 28° 302° (WNW) 1,092 ? 56.0°
Drops below altitude 10° 19:51:58 10° 3° (N) 1,897 ? 56.0°
Sets 19:54:27 0° 15° (NNE) 2,813 ? 55.9°
